When you browse on this site, cookies collect data to enhance your experience and personalize the content and advertising you see.
Visit our Privacy Policy to learn more. By continuing to use the site, you agree to this use of cookies and data.
  • In Deutschland
  • Länderverzeichnis
  • Für 7 Tage
  • Wassertemperatur
  • Wetterkarte
  • Widgets
  • user-avatar
    Anmelden

    Stündliche Wetter Bodø

    Heute, 29 März, Sonntag

    Zeit Temperatur Niederschläge Wind Luftdruck Luftfeuchtigkeit
    00:00 -9°C° 0.3 mm 10 m/S 767 mmHg 73%
    01:00 -8°C° 0 mm 10 m/S 767 mmHg 72%
    02:00 -9°C° 0.3 mm 10 m/S 767 mmHg 73%
    03:00 -9°C° 0.3 mm 9 m/S 767 mmHg 75%
    04:00 -9°C° 0.3 mm 9 m/S 766 mmHg 76%
    05:00 -8°C° 0.4 mm 8 m/S 766 mmHg 78%
    06:00 -8°C° 0.4 mm 7 m/S 766 mmHg 80%
    07:00 -7°C° 0 mm 7 m/S 766 mmHg 83%
    08:00 -7°C° 0.4 mm 7 m/S 765 mmHg 81%
    09:00 -6°C° 0.4 mm 6 m/S 765 mmHg 80%
    10:00 -6°C° 0.4 mm 6 m/S 765 mmHg 79%
    11:00 -6°C° 0.3 mm 6 m/S 765 mmHg 78%
    12:00 -5°C° 0.3 mm 6 m/S 765 mmHg 78%
    13:00 -5°C° 0 mm 5 m/S 765 mmHg 77%
    14:00 -5°C° 0.3 mm 4 m/S 765 mmHg 77%
    15:00 -5°C° 0.3 mm 4 m/S 765 mmHg 77%
    16:00 -5°C° 0.3 mm 4 m/S 765 mmHg 77%
    17:00 -5°C° 0.3 mm 4 m/S 765 mmHg 79%
    18:00 -7°C° 0.3 mm 5 m/S 766 mmHg 81%
    19:00 -7°C° 0.3 mm 5 m/S 766 mmHg 82%
    20:00 -7°C° 0.2 mm 5 m/S 767 mmHg 82%
    21:00 -8°C° 0.2 mm 5 m/S 767 mmHg 83%
    22:00 -8°C° 0.2 mm 4 m/S 767 mmHg 83%
    23:00 -8°C° 0.1 mm 4 m/S 768 mmHg 82%

    Morgen, 30 März, Montag

    Zeit Temperatur Niederschläge Wind Luftdruck Luftfeuchtigkeit
    00:00 -9°C° 0.1 mm 4 m/S 769 mmHg 81%
    01:00 -9°C° 0.1 mm 4 m/S 769 mmHg 80%
    02:00 -8°C° 0.1 mm 3 m/S 769 mmHg 81%
    03:00 -8°C° 0.1 mm 3 m/S 769 mmHg 81%
    04:00 -8°C° 0.1 mm 3 m/S 769 mmHg 82%
    05:00 -6°C° 0.2 mm 2 m/S 769 mmHg 84%
    06:00 -6°C° 0.2 mm 2 m/S 769 mmHg 87%
    07:00 -5°C° 0.2 mm 2 m/S 770 mmHg 89%
    08:00 -5°C° 0.1 mm 2 m/S 769 mmHg 87%
    09:00 -4°C° 0.1 mm 2 m/S 769 mmHg 84%
    10:00 -5°C° 0.1 mm 3 m/S 769 mmHg 82%
    11:00 -4°C° 0.1 mm 3 m/S 769 mmHg 79%
    12:00 -4°C° 0.1 mm 4 m/S 769 mmHg 76%
    13:00 -4°C° 0.1 mm 4 m/S 769 mmHg 73%
    14:00 -5°C° 0.1 mm 5 m/S 768 mmHg 73%
    15:00 -5°C° 0.1 mm 6 m/S 767 mmHg 73%
    16:00 -6°C° 0.1 mm 7 m/S 767 mmHg 73%
    17:00 -7°C° 0 mm 7 m/S 766 mmHg 75%
    18:00 -8°C° 0 mm 7 m/S 765 mmHg 76%
    19:00 -8°C° 0 mm 7 m/S 764 mmHg 77%
    20:00 -8°C° 0 mm 7 m/S 762 mmHg 78%
    21:00 -8°C° 0 mm 8 m/S 761 mmHg 79%
    22:00 -7°C° 0 mm 8 m/S 759 mmHg 80%
    23:00 -8°C° 1 mm 9 m/S 758 mmHg 84%

    übermorgen, 31 März, Dienstag

    Zeit Temperatur Niederschläge Wind Luftdruck Luftfeuchtigkeit
    00:00 -8°C° 1 mm 9 m/S 756 mmHg 87%
    01:00 -8°C° 1 mm 10 m/S 755 mmHg 91%
    02:00 -7°C° 1.7 mm 11 m/S 753 mmHg 92%
    03:00 -7°C° 1.7 mm 12 m/S 751 mmHg 94%
    04:00 -6°C° 1.7 mm 13 m/S 749 mmHg 95%
    05:00 -5°C° 2.4 mm 13 m/S 748 mmHg 96%
    06:00 -2°C° 2.4 mm 14 m/S 747 mmHg 97%
    07:00 -1°C° 2.4 mm 14 m/S 746 mmHg 98%
    08:00 -1°C° 0.8 mm 14 m/S 745 mmHg 96%
    09:00 -2°C° 0.8 mm 14 m/S 744 mmHg 93%
    10:00 -2°C° 0.8 mm 14 m/S 744 mmHg 91%
    11:00 -3°C° 0.5 mm 15 m/S 743 mmHg 93%
    12:00 -4°C° 0.5 mm 15 m/S 742 mmHg 94%
    13:00 -4°C° 0.5 mm 15 m/S 742 mmHg 95%
    14:00 -4°C° 1 mm 16 m/S 740 mmHg 96%
    15:00 -3°C° 1 mm 16 m/S 739 mmHg 97%
    16:00 -3°C° 1 mm 17 m/S 738 mmHg 97%
    17:00 -3°C° 0.9 mm 16 m/S 737 mmHg 97%
    18:00 -3°C° 0.9 mm 16 m/S 737 mmHg 97%
    19:00 -3°C° 0.9 mm 15 m/S 736 mmHg 96%
    20:00 -2°C° 0.9 mm 14 m/S 737 mmHg 97%
    21:00 -2°C° 0.9 mm 13 m/S 738 mmHg 97%
    22:00 -2°C° 0.9 mm 13 m/S 738 mmHg 97%
    23:00 -2°C° 0.7 mm 13 m/S 740 mmHg 97%

    1 April, Mittwoch

    Zeit Temperatur Niederschläge Wind Luftdruck Luftfeuchtigkeit
    00:00 -4°C° 0.7 mm 14 m/S 741 mmHg 96%
    01:00 -4°C° 0.7 mm 15 m/S 742 mmHg 95%
    02:00 -4°C° 0.5 mm 15 m/S 743 mmHg 92%
    03:00 -5°C° 0.5 mm 14 m/S 743 mmHg 89%
    04:00 -5°C° 0.5 mm 13 m/S 744 mmHg 86%
    05:00 -5°C° 0.3 mm 12 m/S 744 mmHg 86%
    06:00 -4°C° 0.3 mm 11 m/S 744 mmHg 85%
    07:00 -4°C° 0.3 mm 10 m/S 745 mmHg 84%
    08:00 -3°C° 0.4 mm 10 m/S 745 mmHg 83%
    09:00 -3°C° 0.4 mm 10 m/S 745 mmHg 82%
    10:00 -3°C° 0.4 mm 9 m/S 745 mmHg 81%
    11:00 -3°C° 0.3 mm 9 m/S 745 mmHg 81%
    12:00 -3°C° 0.3 mm 9 m/S 746 mmHg 81%
    13:00 -3°C° 0.3 mm 9 m/S 746 mmHg 80%
    14:00 -2°C° 0.3 mm 8 m/S 746 mmHg 80%
    15:00 -2°C° 0.3 mm 8 m/S 746 mmHg 80%
    16:00 -2°C° 0.3 mm 8 m/S 746 mmHg 79%
    17:00 -3°C° 0.2 mm 7 m/S 746 mmHg 81%
    18:00 -3°C° 0.2 mm 6 m/S 746 mmHg 82%
    19:00 -4°C° 0.2 mm 5 m/S 746 mmHg 84%
    20:00 -5°C° 0.1 mm 5 m/S 746 mmHg 84%
    21:00 -5°C° 0.1 mm 4 m/S 746 mmHg 85%
    22:00 -5°C° 0.1 mm 3 m/S 746 mmHg 85%
    23:00 -6°C° 0 mm 3 m/S 746 mmHg 85%

    2 April, Donnerstag

    Zeit Temperatur Niederschläge Wind Luftdruck Luftfeuchtigkeit
    00:00 -6°C° 0 mm 3 m/S 746 mmHg 85%
    01:00 -6°C° 0 mm 3 m/S 745 mmHg 86%
    02:00 -6°C° 0.1 mm 3 m/S 745 mmHg 86%
    03:00 -6°C° 0.1 mm 3 m/S 745 mmHg 87%
    04:00 -5°C° 0.1 mm 2 m/S 744 mmHg 87%
    05:00 -5°C° 0.1 mm 2 m/S 744 mmHg 86%
    06:00 -5°C° 0.1 mm 2 m/S 743 mmHg 85%
    07:00 -5°C° 0.1 mm 2 m/S 743 mmHg 84%
    08:00 -5°C° 0 mm 2 m/S 742 mmHg 83%
    09:00 -4°C° 0 mm 2 m/S 741 mmHg 81%
    10:00 -3°C° 0 mm 2 m/S 741 mmHg 80%
    11:00 -3°C° 0 mm 2 m/S 740 mmHg 79%
    12:00 -2°C° 0 mm 3 m/S 740 mmHg 78%
    13:00 -2°C° 0 mm 3 m/S 739 mmHg 76%
    14:00 -2°C° 0 mm 3 m/S 739 mmHg 76%
    15:00 -2°C° 0 mm 3 m/S 739 mmHg 75%
    16:00 -2°C° 0 mm 3 m/S 739 mmHg 75%
    17:00 -5°C° 0 mm 4 m/S 739 mmHg 75%
    18:00 -7°C° 0 mm 4 m/S 739 mmHg 75%
    19:00 -8°C° 0 mm 4 m/S 739 mmHg 76%
    20:00 -9°C° 0.1 mm 4 m/S 739 mmHg 75%
    21:00 -11°C° 0.1 mm 5 m/S 740 mmHg 75%
    22:00 -12°C° 0.1 mm 5 m/S 740 mmHg 75%
    23:00 -12°C° 0.1 mm 5 m/S 740 mmHg 75%

    3 April, Freitag

    Zeit Temperatur Niederschläge Wind Luftdruck Luftfeuchtigkeit
    00:00 -11°C° 0.1 mm 4 m/S 740 mmHg 76%
    01:00 -11°C° 0.1 mm 4 m/S 740 mmHg 77%
    02:00 -11°C° 0.1 mm 4 m/S 740 mmHg 80%
    03:00 -10°C° 0.1 mm 4 m/S 741 mmHg 83%
    04:00 -10°C° 0.1 mm 4 m/S 741 mmHg 86%
    05:00 -9°C° 0 mm 3 m/S 741 mmHg 85%
    06:00 -7°C° 0 mm 2 m/S 741 mmHg 85%
    07:00 -7°C° 0 mm 2 m/S 741 mmHg 84%
    08:00 -6°C° 0.1 mm 2 m/S 742 mmHg 81%
    09:00 -5°C° 0.1 mm 2 m/S 742 mmHg 78%
    10:00 -4°C° 0.1 mm 2 m/S 742 mmHg 76%
    11:00 -2°C° 0.2 mm 1 m/S 742 mmHg 76%
    12:00 -1°C° 0.2 mm 1 m/S 742 mmHg 77%
    13:00 -1°C° 0.2 mm 1 m/S 743 mmHg 77%
    14:00 -1°C° 0.1 mm 1 m/S 743 mmHg 76%
    15:00 -1°C° 0.1 mm 1 m/S 743 mmHg 74%
    16:00 -1°C° 0.1 mm 1 m/S 743 mmHg 72%
    17:00 -2°C° 0.3 mm 1 m/S 744 mmHg 77%
    18:00 -2°C° 0.3 mm 1 m/S 744 mmHg 82%
    19:00 -3°C° 0.3 mm 1 m/S 744 mmHg 87%
    20:00 -5°C° 0.5 mm 2 m/S 745 mmHg 89%
    21:00 -5°C° 0.5 mm 2 m/S 745 mmHg 90%
    22:00 -6°C° 0.5 mm 3 m/S 746 mmHg 92%
    23:00 -7°C° 0.6 mm 4 m/S 746 mmHg 90%
    Mehr zeigen